{"data":{"norad_id":66866,"epoch":"2026-05-24T19:37:28.858368Z","epoch_age_seconds":86744,"freshness":"FRESH","line1":"1 66866U 25281U   26144.81769512  .00014503  00000+0  53527-3 0  9993","line2":"2 66866  43.0029 273.9474 0002634 260.0730  99.9824 15.27593973 27811","mean_motion":15.27593973,"eccentricity":0.0002634,"inclination_deg":43.0029,"raan_deg":273.9474,"arg_perigee_deg":260.073,"mean_anomaly_deg":99.9824,"bstar":0.00053527,"rev_number":2781,"period_min":94.265886449658,"perigee_km":481.20003077275,"apogee_km":484.8144815669,"semimajor_km":6861.1442561698,"source":"CELESTRAK","updated_at":"2026-05-25T13:38:21.344162Z"}}